Weather History for KMFR - October, 2012

Change the Weather History Date:

Sunday, October 21, 2012

  Actual Average Record
Temperature  
Mean Temperature 46 °F 54 °F  
Max Temperature 58 °F 67 °F 83 °F (2003)
Min Temperature 34 °F 41 °F 26 °F (1933)
Degree Days  
Heating Degree Days 19 11  
Month to date heating degree days 112 157  
Since 1 July heating degree days 113 226  
Cooling Degree Days 0 0  
Month to date cooling degree days 11 8  
Year to date cooling degree days 960 827  
Moisture  
Dew Point 36 °F    
Average Humidity 71    
Maximum Humidity 100    
Minimum Humidity 41    
Precipitation  
Precipitation 0.04 in 0.04 in 1.22 in (1973)
Month to date precipitation 1.09 0.60  
Year to date precipitation 15.21 11.31  
Snow  
Snow 0.00 in 0.00 in - ()
Month to date snowfall 0.0 0.0  
Since 1 July snowfall 0.0 0.0  
Snow Depth 0.00 in    
Sea Level Pressure  
Sea Level Pressure 29.89 in    
Wind  
Wind Speed 2 mph (NW)    
Max Wind Speed 9 mph    
Max Gust Speed 12 mph    
Visibility 9 miles    
Events Rain    
T = Trace of Precipitation, MM = Missing Value Source: NWS Daily Summary

Daily Weather History Graph

Daily Weather History Graph

Search for Another Location

Airport or City:

Trip Planner

Search our weather history database for the weather conditions in past years. The results will help you decide how hot, cold, wet, or windy it might be!

Date:

Astronomy

Oct. 21, 2012 Rise Set
Actual Time 7:32 AM PDT 6:19 PM PDT
Civil Twilight 7:03 AM PDT 6:47 PM PDT
Nautical Twilight 6:30 AM PDT 7:20 PM PDT
Astronomical Twilight 5:58 AM PDT 7:52 PM PDT
Moon 1:59 PM PDT (10/21) No Moon Set
Length of Visible Light 11h 44m
Length of Day
10h 47m
Waxing Crescent, 46% of the Moon is Illuminated
Oct 21
Waxing Crescent
Oct 21
First Quarter
Oct 29
Full
Nov 6
Last Quarter
Nov 13
New

Hourly Weather History & Observations

Time (PDT) Temp. Windchill Dew Point Humidity Pressure Visibility Wind Dir Wind Speed Gust Speed Precip Events Conditions
12:53 AM 42.1 °F 40.2 °F 37.0 °F 82% 29.98 in 10.0 mi North 3.5 mph - N/A   Clear
1:53 AM 37.9 °F 35.5 °F 35.1 °F 89% 29.98 in 10.0 mi North 3.5 mph - N/A   Clear
2:53 AM 39.0 °F - 35.1 °F 86% 29.97 in 10.0 mi Calm Calm - N/A   Clear
3:53 AM 37.9 °F 35.5 °F 34.0 °F 86% 29.97 in 10.0 mi NNW 3.5 mph - N/A   Clear
4:53 AM 35.1 °F - 33.1 °F 92% 29.96 in 10.0 mi Calm Calm - N/A   Clear
5:53 AM 35.1 °F - 33.1 °F 92% 29.96 in 10.0 mi Calm Calm - N/A   Clear
6:29 AM 35.6 °F - 33.8 °F 93% 29.96 in 9.0 mi Calm Calm - N/A   Mostly Cloudy
6:36 AM 33.8 °F - 33.8 °F 100% 29.96 in 1.8 mi Calm Calm - N/A   Mostly Cloudy
6:53 AM 34.0 °F - 33.1 °F 96% 29.98 in 5.0 mi Calm Calm - N/A   Overcast
7:06 AM 35.6 °F - 33.8 °F 93% 29.96 in 10.0 mi Calm Calm - N/A   Mostly Cloudy
7:45 AM 35.6 °F - 33.8 °F 93% 29.95 in 10.0 mi Calm Calm - N/A   Overcast
7:53 AM 36.0 °F - 34.0 °F 93% 29.96 in 5.0 mi Calm Calm - N/A   Overcast
8:53 AM 37.0 °F - 35.1 °F 93% 29.97 in 5.0 mi Calm Calm - N/A   Overcast
9:53 AM 39.0 °F - 36.0 °F 89% 29.96 in 5.0 mi Calm Calm - N/A   Overcast
10:00 AM 39.2 °F - 35.6 °F 87% 29.95 in 5.0 mi Calm Calm - N/A   Overcast
10:12 AM 39.2 °F - 35.6 °F 87% 29.95 in 5.0 mi Calm Calm - N/A   Overcast
10:53 AM 41.0 °F - 36.0 °F 82% 29.95 in 10.0 mi Calm Calm - N/A   Overcast
11:53 AM 44.1 °F - 37.0 °F 76% 29.93 in 10.0 mi Calm Calm - N/A   Scattered Clouds
12:53 PM 50.0 °F - 37.9 °F 63% 29.90 in 10.0 mi Calm Calm - N/A   Scattered Clouds
1:53 PM 53.1 °F - 36.0 °F 52% 29.86 in 10.0 mi Calm Calm - N/A   Scattered Clouds
2:53 PM 55.9 °F - 34.0 °F 44% 29.82 in 10.0 mi Variable 3.5 mph - N/A   Scattered Clouds
3:53 PM 55.9 °F - 32.0 °F 40% 29.80 in 10.0 mi NW 5.8 mph - N/A   Overcast
4:53 PM 55.9 °F - 35.1 °F 45% 29.79 in 10.0 mi WNW 3.5 mph - N/A   Overcast
5:53 PM 54.0 °F - 37.9 °F 55% 29.79 in 10.0 mi WNW 6.9 mph - N/A   Mostly Cloudy
6:53 PM 51.1 °F - 39.0 °F 63% 29.78 in 10.0 mi Calm Calm - N/A   Mostly Cloudy
7:53 PM 52.0 °F - 39.0 °F 61% 29.79 in 10.0 mi Calm Calm - N/A   Overcast
8:53 PM 48.9 °F - 42.1 °F 77% 29.77 in 10.0 mi NW 9.2 mph - 0.00 in   Overcast
9:53 PM 48.0 °F - 42.1 °F 80% 29.76 in 10.0 mi NE 5.8 mph - N/A   Overcast
10:53 PM 48.0 °F - 43.0 °F 83% 29.74 in 10.0 mi Calm Calm - 0.01 in Rain Light Rain
11:53 PM 46.9 °F - 44.1 °F 90% 29.73 in 10.0 mi WSW 3.5 mph - 0.00 in Rain Light Rain